(72194) = 2000 YA128 = 1998 KD34 = 2002 GN87

Discovered at Kitt Peak on 2000-12-29 by Spacewatch.

Orbit

Orbit type: Main Belt

Note: WebGL enabled browser required.

epoch2023-09-13.0
epoch JD2460200.5
perihelion date2019-12-02.84374
perihelion JD2458820.34374
argument of perihelion (°)185.86291
ascending node (°)98.48317
inclination (°)5.43561
eccentricity0.1010004
perihelion distance (AU)2.3479031
Tisserand w.r.t. Jupiter3.4
ΔV w.r.t. Earth (km/sec)9.7
semimajor axis (AU)2.6116841
mean anomaly (°)322.29320
mean daily motion (°/day)0.23351940
aphelion distance (AU)2.875
period (years)4.22
P-vector [x]0.24732405
P-vector [y]-0.88508517
P-vector [z]-0.39427790
Q-vector [x]0.96439249
Q-vector [y]0.26420994
Q-vector [z]0.01184230
absolute magnitude15.48
phase slope0.15
uncertainty0
referenceMPO 777005
observations used1154
oppositions19
arc length (days)9149
first opposition used1998
last opposition used2023
residual rms (arc-secs)0.74
perturbers coarse indicatorM-v
perturbers precise indicator003Ek
first observation date used1998-05-22.0
last observation date used2023-06-09.0
computer nameMPCLINUX
JD of orbit computation2456731.583346
perihelion JD uncertainty (days)1.5296E-04
argument of perihelion uncertainty (°)6.6616E-05
ascending node uncertainty (°)5.8967E-05
inclination uncertainty (°)5.6759E-06
eccentricity uncertainty 5.0399E-08
perihelion distance uncertainty (AU)1.3010E-07
Minimum Orbit Intersection Distances (in AU)
for orbit epoch: 2460200.5, reference: E2023-UC4
Mercury1.89107
Venus1.62038
Earth1.33089
Mars0.88922
Jupiter2.23438
Saturn6.18357
Uranus15.6916
Neptune27.1076

Observations

1144 total observations over interval: 1998 05 22.27057 – 2023 06 09.237961
These data are available for download (format description).

Date (UT) J2000 RA J2000 Dec Magn Location Ref
1998 05 22.27057 15 57 38.13 -14 34 17.0 18.8   704 – Lincoln Laboratory ETS, New Mexico MPS 1502
1998 05 22.29007 15 57 37.09 -14 34 16.9 18.8   704 – Lincoln Laboratory ETS, New Mexico MPS 1502
1998 05 22.30957 15 57 35.95 -14 34 16.8 19.1   704 – Lincoln Laboratory ETS, New Mexico MPS 1502
1998 05 22.32916 15 57 34.72 -14 34 16.8 18.8   704 – Lincoln Laboratory ETS, New Mexico MPS 1502
1998 05 22.34892 15 57 33.34 -14 34 13.7 19.3   704 – Lincoln Laboratory ETS, New Mexico MPS 1502
1998 05 24.25806 15 55 45.22 -14 32 48.6 18.5   704 – Lincoln Laboratory ETS, New Mexico MPS 1502
1998 05 24.27766 15 55 43.99 -14 32 47.5 18.9   704 – Lincoln Laboratory ETS, New Mexico MPS 1502
1998 05 24.29734 15 55 42.81 -14 32 45.3 19.1   704 – Lincoln Laboratory ETS, New Mexico MPS 1502
1998 05 24.31717 15 55 41.53 -14 32 44.2 18.8   704 – Lincoln Laboratory ETS, New Mexico MPS 1502
1998 05 24.33695 15 55 40.55 -14 32 44.0 18.8   704 – Lincoln Laboratory ETS, New Mexico MPS 1502
2000 12 29.43544 07 45 44.44 +22 40 46.7 19.9 V 691 – Steward Observatory, Kitt Peak-Spacewatch MPS 25525
2000 12 29.45840 07 45 43.16 +22 40 52.2 19.9 V 691 – Steward Observatory, Kitt Peak-Spacewatch MPS 25525
2000 12 29.48118 07 45 41.89 +22 40 57.6 20.0 V 691 – Steward Observatory, Kitt Peak-Spacewatch MPS 25525
2000 12 30.32216 07 44 56.23 +22 44 23.3 19.6   704 – Lincoln Laboratory ETS, New Mexico MPS 25525
2000 12 30.33737 07 44 55.44 +22 44 28.7 19.5   704 – Lincoln Laboratory ETS, New Mexico MPS 25525
2000 12 30.35276 07 44 54.52 +22 44 32.4 19.6   704 – Lincoln Laboratory ETS, New Mexico MPS 25525
2000 12 30.36795 07 44 53.59 +22 44 34.7 19.6   704 – Lincoln Laboratory ETS, New Mexico MPS 25525
2001 01 21.25207 07 23 15.46 +24 08 33.7 19.7   704 – Lincoln Laboratory ETS, New Mexico MPS 57114
2001 01 21.26806 07 23 14.45 +24 08 36.6 19.8   704 – Lincoln Laboratory ETS, New Mexico MPS 57114
2001 01 21.28382 07 23 13.58 +24 08 39.3 19.3   704 – Lincoln Laboratory ETS, New Mexico MPS 57114
2002 04 10.35574 14 15 12.57 -04 39 29.5 18.9   704 – Lincoln Laboratory ETS, New Mexico MPS 55203
2002 04 10.36715 14 15 12.01 -04 39 25.3 19.2   704 – Lincoln Laboratory ETS, New Mexico MPS 55203
2002 04 10.37854 14 15 11.43 -04 39 23.0 19.4   704 – Lincoln Laboratory ETS, New Mexico MPS 55203
2002 04 10.39000 14 15 10.90 -04 39 19.7 19.2   704 – Lincoln Laboratory ETS, New Mexico MPS 55203
2002 04 10.40138 14 15 10.37 -04 39 17.4 19.3   704 – Lincoln Laboratory ETS, New Mexico MPS 55203
2002 04 11.36460 14 14 24.45 -04 34 52.0 18.8   704 – Lincoln Laboratory ETS, New Mexico MPS 55203
2002 04 11.37638 14 14 23.84 -04 34 49.0 19.0   704 – Lincoln Laboratory ETS, New Mexico MPS 55203
2002 04 11.38819 14 14 23.20 -04 34 46.3 19.4   704 – Lincoln Laboratory ETS, New Mexico MPS 55203
2002 04 11.39999 14 14 22.63 -04 34 43.2 19.1   704 – Lincoln Laboratory ETS, New Mexico MPS 55203
2002 04 11.41179 14 14 22.07 -04 34 39.3 19.4   704 – Lincoln Laboratory ETS, New Mexico MPS 55203
2002 04 16.32445 14 10 16.48 -04 12 28.7 18.4   704 – Lincoln Laboratory ETS, New Mexico MPS 57454
2002 04 16.33875 14 10 15.70 -04 12 25.1 18.8   704 – Lincoln Laboratory ETS, New Mexico MPS 57454
2002 04 16.35300 14 10 14.93 -04 12 21.1 18.8   704 – Lincoln Laboratory ETS, New Mexico MPS 57454
2002 04 16.36717 14 10 14.23 -04 12 16.8 18.9   704 – Lincoln Laboratory ETS, New Mexico MPS 57454
2002 04 16.38134 14 10 13.44 -04 12 13.0 18.9   704 – Lincoln Laboratory ETS, New Mexico MPS 57454
2002 05 02.20431 13 56 17.91 -03 12 04.8 18.3 R 699 – Lowell Observatory-LONEOS MPS 57454
2002 05 02.22028 13 56 17.12 -03 12 03.0   699 – Lowell Observatory-LONEOS MPS 57454
2002 05 02.23627 13 56 16.23 -03 11 58.7   699 – Lowell Observatory-LONEOS MPS 57454
2002 05 02.25226 13 56 15.44 -03 11 56.8   699 – Lowell Observatory-LONEOS MPS 57454
2002 05 07.26411 13 52 05.90 -02 58 54.4 18.3   644 – Palomar Mountain/NEAT MPS 57454
2002 05 07.28977 13 52 04.65 -02 58 51.2 18.5   644 – Palomar Mountain/NEAT MPS 57454
2002 05 07.33283 13 52 02.51 -02 58 45.4 18.6   644 – Palomar Mountain/NEAT MPS 57454
2002 05 08.27166 13 51 17.96 -02 56 44.2 18.2   704 – Lincoln Laboratory ETS, New Mexico MPS 57454
2002 05 08.28429 13 51 17.36 -02 56 42.3 18.7   704 – Lincoln Laboratory ETS, New Mexico MPS 57454
2002 05 08.29679 13 51 16.76 -02 56 41.4 19.1   704 – Lincoln Laboratory ETS, New Mexico MPS 57454
2002 05 08.30917 13 51 16.16 -02 56 39.5 18.7   704 – Lincoln Laboratory ETS, New Mexico MPS 57454
2002 05 08.32159 13 51 15.56 -02 56 38.7 18.9   704 – Lincoln Laboratory ETS, New Mexico MPS 57454
2002 05 18.22360 13 44 21.37 -02 44 13.8 18.7   704 – Lincoln Laboratory ETS, New Mexico MPS 57454
2002 05 18.23857 13 44 20.77 -02 44 13.8 19.2   704 – Lincoln Laboratory ETS, New Mexico MPS 57454
2002 05 18.25355 13 44 20.13 -02 44 15.2 19.6   704 – Lincoln Laboratory ETS, New Mexico MPS 57454
2002 05 18.26854 13 44 19.56 -02 44 13.7 19.3   704 – Lincoln Laboratory ETS, New Mexico MPS 57454
2002 05 18.28359 13 44 19.08 -02 44 12.8 19.0   704 – Lincoln Laboratory ETS, New Mexico MPS 57454
2003 08 22.43311 23 59 17.40 -08 52 31.5 18.1   644 – Palomar Mountain/NEAT MPS 83297
2003 08 22.44476 23 59 17.01 -08 52 35.9 18.3   644 – Palomar Mountain/NEAT MPS 83297
2003 08 22.45638 23 59 16.62 -08 52 40.2 18.3   644 – Palomar Mountain/NEAT MPS 83297
2003 08 26.31025 23 57 02.96 -09 17 25.4 19.4   704 – Lincoln Laboratory ETS, New Mexico MPS 83297
2003 08 26.32293 23 57 02.42 -09 17 31.1 19.6   704 – Lincoln Laboratory ETS, New Mexico MPS 83297
2003 08 26.33537 23 57 01.94 -09 17 35.2 19.2   704 – Lincoln Laboratory ETS, New Mexico MPS 83297
2003 08 26.34878 23 57 01.47 -09 17 40.3 19.5   704 – Lincoln Laboratory ETS, New Mexico MPS 83297
2003 08 30.44439 23 54 18.89 -09 44 50.3 20.9   608 – Haleakala-AMOS MPS 83993
2003 08 30.45530 23 54 18.45 -09 44 55.5 19.6   608 – Haleakala-AMOS MPS 83993
2003 08 30.46580 23 54 18.00 -09 45 00.4 19.6   608 – Haleakala-AMOS MPS 83993
2003 09 01.30101 23 52 59.26 -09 57 17.8 18.8   704 – Lincoln Laboratory ETS, New Mexico MPS 83993
2003 09 01.31281 23 52 58.75 -09 57 21.6 18.9   704 – Lincoln Laboratory ETS, New Mexico MPS 83993
2003 09 01.32468 23 52 58.18 -09 57 26.9 19.1   704 – Lincoln Laboratory ETS, New Mexico MPS 83993
2003 09 01.33659 23 52 57.67 -09 57 31.8 19.0   704 – Lincoln Laboratory ETS, New Mexico MPS 83993
2003 09 01.34862 23 52 57.10 -09 57 36.3 19.1   704 – Lincoln Laboratory ETS, New Mexico MPS 83993
2003 09 04.36586 23 50 41.29 -10 17 47.4 19.3   608 – Haleakala-AMOS MPS 83993
2003 09 04.37651 23 50 40.80 -10 17 51.4 19.5   608 – Haleakala-AMOS MPS 83993
2003 09 04.38732 23 50 40.29 -10 17 55.9 19.4   608 – Haleakala-AMOS MPS 83993
2003 09 17.18902 23 40 06.76 -11 38 24.2 18.8 R 699 – Lowell Observatory-LONEOS MPS 85130
2003 09 17.20733 23 40 05.86 -11 38 30.7   699 – Lowell Observatory-LONEOS MPS 85130
2003 09 17.22563 23 40 04.80 -11 38 37.4   699 – Lowell Observatory-LONEOS MPS 85130
2003 09 17.24395 23 40 03.87 -11 38 42.6   699 – Lowell Observatory-LONEOS MPS 85130
2003 09 17.29443 23 40 01.18 -11 39 00.1 18.7   704 – Lincoln Laboratory ETS, New Mexico MPS 84495
2003 09 17.30770 23 40 00.47 -11 39 04.2 18.8   704 – Lincoln Laboratory ETS, New Mexico MPS 84495
2003 09 17.32118 23 39 59.70 -11 39 08.9 19.3   704 – Lincoln Laboratory ETS, New Mexico MPS 84495
2003 09 17.33387 23 39 59.11 -11 39 13.3 18.9   704 – Lincoln Laboratory ETS, New Mexico MPS 84495
2003 09 17.34617 23 39 58.41 -11 39 18.3 18.7   704 – Lincoln Laboratory ETS, New Mexico MPS 84495
2003 09 18.18543 23 39 16.12 -11 44 00.7 18.2 R 699 – Lowell Observatory-LONEOS MPS 85130
2003 09 18.20377 23 39 15.10 -11 44 06.7   699 – Lowell Observatory-LONEOS MPS 85130
2003 09 18.22215 23 39 14.16 -11 44 13.3   699 – Lowell Observatory-LONEOS MPS 85130
2003 09 18.24034 23 39 13.17 -11 44 19.1   699 – Lowell Observatory-LONEOS MPS 85130
2003 10 18.20367 23 19 17.66 -13 11 42.0 19.0 C 704 – Lincoln Laboratory ETS, New Mexico MPS 290993
2003 10 18.21614 23 19 17.32 -13 11 41.4 19.0 C 704 – Lincoln Laboratory ETS, New Mexico MPS 290993
2003 10 18.22800 23 19 17.12 -13 11 42.0 18.8 C 704 – Lincoln Laboratory ETS, New Mexico MPS 290993
